DELTA 1 DEB, 3812

Orbit data source: Space-Track

DELTA 1 DEB, 3812 is space debris in SSO originally from a launch on Sun, 15 Dec 1968 UTC launched from the Air Force Western Test Range (AFWTR). Debris objects in space refer to the collection of defunct objects orbiting the Earth. Examples of debris include non-operational satellites, rocket bodies, and fragments generated from explosions, collisions, or faulty payload assembly.

Loading next visibility...
Identifier
3812, 1968-114D
Orbit
SSO
Country
Flag of USUS
Related business
Manufacturer
Unknown
Mission
Spacecraft
Bus & Motor
Unknown
Mass
Unknown
Launch date (UTC)
1968-12-15 (58 years ago)
Launch vehicle
Unknown
Launch site
Air Force Western Test Range (AFWTR)
Object type
Payload
Rocket body
Debris
Shape & HBR
Unknown shape, 0.1 m
Radar Cross Section
Medium (>0.1 m² and <1 m²)

Expand to show TLE details & history
Last TLE update: 3 days ago

TLE from 3 days ago
0 DELTA 1 DEB
1 03812U 68114D   26170.37736113 -.00000038  00000-0  68772-4 0  9997
2 03812 102.4370 192.4673 0071171 169.5358 318.1577 12.37788124597892
Epoch: 2026-06-19T09:03Z
TLE epoch observation values (Epoch: 2026-06-19T09:03:24.001Z)
Latitude
51.20867°
Longitude
-15.14486°
Altitude
1,482.292 km
Speed
7.146 km/s
True Right ascension
01h 53m 14s
True Declination
51° 03' 22"
Sunlit
Object was in daylight at epoch
Visualization orbit readout
Latitude
Unknown
Longitude
Unknown
Altitude
Unknown
Speed
Unknown
Apparent Right ascension
Unknown
Apparent Declination
Unknown
Sunlit
N/A
Visualization observer readout
Local Sidereal Time
23:27:21
Azimuth
Unknown
Elevation
Unknown
Doppler factor
Unknown
Orbital elements
Apogee altitude
1,569.764 km
Perigee altitude
1,457.431 km
Semi-major axis
7,891.734 km
Eccentricity
0.00712
Inclination
102.437°
RAAN
192.4673°
Arg. of periapsis
169.5358°
True anomaly
317.61003°
Mean anomaly
318.1577°
Eccentric anomaly
317.88423°
Mean motion
3.09588 °/min
Orbital period
116.28 mins
BSTAR
0.000068772
Loading maneuver chart data...
Computing Atmospheric mass density...
Loading historical data...
Loading historical data...
Loading historical data...
Loading historical data...
Loading historical data...
Loading historical data...
Loading historical data...

Documentation

Showing up to 5 results
|